Date Time,Air Temp,Sky Temp,Clarity,Light Level,Rain Sensor,Readings
2011-10-23 00:00:25,24.0,-2.9,26.9,0.0,2.3,112
2011-10-23 00:05:25,24.0,-2.4,26.4,0.0,2.3,111
2011-10-23 00:10:25,24.0,0.0,24.0,0.0,2.3,112
2011-10-23 00:15:25,24.0,0.1,23.9,0.0,2.3,111
2011-10-23 00:20:25,22.7,5.7,17.0,0.0,2.3,112
2011-10-23 00:25:25,20.5,8.2,12.3,0.0,2.3,112
2011-10-23 00:30:25,20.0,8.5,11.6,0.0,2.3,111
2011-10-23 00:35:25,19.9,7.8,12.1,0.0,2.2,111
2011-10-23 00:40:25,19.8,8.3,11.5,0.0,2.3,112
2011-10-23 00:45:25,19.8,9.2,10.6,0.0,2.3,112
2011-10-23 00:50:25,19.8,9.4,10.4,0.0,2.3,111
2011-10-23 00:55:25,19.9,9.6,10.2,0.0,2.3,112
2011-10-23 01:00:27,19.9,10.0,9.9,0.0,2.3,111
2011-10-23 01:05:27,20.0,10.2,9.8,0.0,2.3,112
2011-10-23 01:10:27,20.1,10.4,9.7,0.0,2.2,111
2011-10-23 01:15:27,20.1,10.6,9.5,0.0,2.3,111
2011-10-23 01:20:27,20.2,10.4,9.8,0.0,2.3,112
2011-10-23 01:25:27,20.3,10.7,9.6,0.0,2.3,111
2011-10-23 01:30:27,20.3,10.7,9.6,0.0,2.3,111
2011-10-23 01:35:27,20.4,10.9,9.5,0.0,2.3,112
2011-10-23 01:40:27,20.4,10.9,9.5,0.0,2.3,112
2011-10-23 01:45:27,20.5,11.1,9.4,0.0,2.3,111
2011-10-23 01:50:27,20.5,11.2,9.3,0.0,2.3,111
2011-10-23 01:55:27,20.5,11.4,9.1,0.0,2.4,112
2011-10-23 02:00:27,20.5,10.9,9.6,0.0,2.4,111
2011-10-23 02:05:27,20.5,11.2,9.3,0.0,2.4,112
2011-10-23 02:10:27,20.5,11.0,9.5,0.0,2.3,111
2011-10-23 02:15:27,20.5,11.1,9.4,0.0,2.3,112
2011-10-23 02:20:27,20.5,10.9,9.6,0.0,2.3,111
2011-10-23 02:25:27,20.5,9.4,11.1,0.0,2.3,112
2011-10-23 02:30:27,20.5,9.4,11.1,0.0,2.3,111
2011-10-23 02:35:27,20.5,8.6,11.9,0.0,2.3,111
2011-10-23 02:40:27,20.4,6.4,14.0,0.0,2.3,112
2011-10-23 02:45:27,20.4,6.2,14.2,0.0,2.3,111
2011-10-23 02:50:27,20.3,6.9,13.4,0.0,2.3,111
2011-10-23 02:55:27,20.3,5.7,14.5,0.0,2.3,112
2011-10-23 03:00:27,20.2,7.5,12.7,0.0,2.3,111
2011-10-23 03:05:27,20.2,4.7,15.4,0.0,2.3,112
2011-10-23 03:10:27,20.1,5.6,14.6,0.0,2.3,111
2011-10-23 03:15:27,19.7,4.7,15.0,0.0,2.3,111
2011-10-23 03:20:27,20.1,8.6,11.5,0.0,2.3,112
2011-10-23 03:25:27,20.1,9.1,11.0,0.0,2.3,111
2011-10-23 03:30:27,20.1,8.6,11.5,0.0,2.3,112
2011-10-23 03:35:27,20.1,7.7,12.4,0.0,2.3,111
2011-10-23 03:40:27,20.1,7.4,12.7,0.0,2.3,112
2011-10-23 03:45:27,20.1,7.2,12.9,0.0,2.3,111
2011-10-23 03:50:27,20.1,6.1,14.0,0.0,2.3,112
2011-10-23 03:55:27,20.0,5.5,14.5,0.0,2.2,111
2011-10-23 04:00:27,20.0,7.6,12.4,0.0,2.3,112
2011-10-23 04:05:27,19.9,5.7,14.3,0.0,2.3,111
2011-10-23 04:10:28,19.9,9.9,10.0,0.0,2.3,112
2011-10-23 04:15:28,20.0,9.9,10.1,0.0,2.3,111
2011-10-23 04:20:28,20.0,10.5,9.5,0.0,2.3,112
2011-10-23 04:25:28,20.0,10.5,9.5,0.0,2.3,111
2011-10-23 04:30:28,20.0,8.3,11.7,0.0,2.2,111
2011-10-23 04:35:28,20.0,7.7,12.3,0.0,2.3,112
2011-10-23 04:40:28,19.9,6.9,13.1,0.0,2.3,112
2011-10-23 04:45:28,19.9,5.5,14.4,0.0,2.3,111
2011-10-23 04:50:28,19.9,8.0,11.8,0.0,2.3,111
2011-10-23 04:55:28,19.9,7.2,12.7,0.0,2.3,111
2011-10-23 05:00:28,20.2,1.4,18.8,0.0,2.3,111
2011-10-23 05:05:28,20.8,-0.7,21.5,0.0,2.3,112
2011-10-23 05:10:28,23.1,-3.7,26.7,0.0,2.3,112
2011-10-23 05:15:28,23.8,-1.0,24.9,0.0,2.2,111
2011-10-23 05:20:28,23.8,1.2,22.5,0.0,2.2,112
2011-10-23 05:25:28,22.8,2.2,20.6,0.0,2.3,112
2011-10-23 05:30:28,23.3,2.0,21.4,0.0,2.2,111
2011-10-23 05:35:28,22.6,6.4,16.3,0.0,2.2,111
2011-10-23 05:40:28,20.7,7.4,13.3,0.0,2.3,111
2011-10-23 05:45:28,20.1,10.0,10.2,0.0,2.3,112
2011-10-23 05:50:28,20.0,9.7,10.3,0.0,2.3,111
2011-10-23 05:55:28,19.9,10.1,9.8,0.0,2.3,112
2011-10-23 06:00:28,19.9,10.4,9.5,0.0,2.3,112
2011-10-23 06:05:28,19.9,11.4,8.5,0.0,2.3,111
2011-10-23 06:10:28,19.9,11.6,8.3,0.0,2.3,111
2011-10-23 06:15:28,20.0,11.5,8.5,0.0,2.3,112
2011-10-23 06:20:28,20.0,10.4,9.6,0.0,2.3,111
2011-10-23 06:25:28,20.0,10.1,9.9,0.0,2.3,111
2011-10-23 06:30:28,20.0,10.0,10.0,0.0,2.2,112
2011-10-23 06:35:28,20.0,9.5,10.4,0.0,2.2,111
2011-10-23 06:40:28,19.9,7.1,12.8,0.1,2.2,112
2011-10-23 06:45:28,19.9,4.0,15.9,0.2,2.3,112
2011-10-23 06:50:28,20.5,1.0,19.5,0.4,2.3,111
2011-10-23 06:55:28,22.9,-1.9,24.8,0.9,2.3,112
2011-10-23 07:00:28,23.6,1.0,22.6,1.6,2.2,112
2011-10-23 07:05:28,21.2,9.3,11.9,2.5,2.3,111
2011-10-23 07:10:28,20.2,10.7,9.6,4.4,2.3,111
2011-10-23 07:15:28,20.0,10.3,9.6,8.4,2.3,112
2011-10-23 07:20:28,19.9,9.3,10.6,14.5,2.3,111
2011-10-23 07:25:28,19.9,9.0,10.9,19.9,2.3,111
2011-10-23 07:30:28,19.8,10.2,9.6,23.1,2.3,112
2011-10-23 07:35:28,19.9,10.5,9.3,25.1,2.3,111
2011-10-23 07:40:28,19.9,10.6,9.4,28.1,2.3,112
2011-10-23 07:45:28,20.0,10.5,9.5,29.0,2.3,111
2011-10-23 07:50:28,20.0,10.3,9.8,30.5,2.3,112
2011-10-23 07:55:28,20.1,10.1,10.0,30.9,2.3,112
2011-10-23 08:00:28,20.1,10.1,9.9,31.3,2.3,111
2011-10-23 08:05:28,20.1,9.5,10.6,31.6,2.3,111
2011-10-23 08:10:28,20.1,7.6,12.4,31.8,2.3,112
2011-10-23 08:15:28,20.1,5.6,14.4,31.9,2.3,111
2011-10-23 08:20:28,20.1,5.0,15.1,32.0,2.3,112
2011-10-23 08:25:28,20.1,10.6,9.5,31.9,2.3,111
2011-10-23 08:30:28,20.2,10.9,9.3,31.8,2.3,111
2011-10-23 08:35:28,20.3,11.0,9.3,32.0,2.3,111
2011-10-23 08:40:28,20.4,10.7,9.6,32.1,2.3,112
2011-10-23 08:45:28,20.5,10.6,9.9,32.2,2.3,111
2011-10-23 08:50:28,20.6,9.3,11.3,32.3,2.3,111
2011-10-23 08:55:28,20.7,7.2,13.5,32.3,2.3,112
2011-10-23 09:00:28,20.8,5.6,15.3,32.4,2.3,111
2011-10-23 09:05:28,20.8,3.1,17.7,32.4,2.3,112
2011-10-23 09:10:28,23.7,-1.9,25.6,32.4,2.3,112
2011-10-23 09:15:28,25.1,-2.8,27.9,32.4,2.3,111
2011-10-23 09:20:28,25.5,-2.4,27.9,32.4,2.3,112
2011-10-23 09:25:28,25.7,-2.6,28.3,32.4,2.3,111
2011-10-23 09:30:28,25.8,-3.2,29.0,32.4,2.3,112
2011-10-23 09:35:28,25.9,-3.1,29.0,32.4,2.3,112
2011-10-23 09:40:28,26.0,-2.9,29.0,32.4,2.3,112
2011-10-23 09:45:28,26.1,-2.5,28.6,32.4,2.3,111
2011-10-23 09:50:28,26.1,-2.4,28.5,32.4,2.3,112
2011-10-23 09:55:28,26.1,-2.5,28.6,32.5,2.3,111
2011-10-23 10:00:28,26.1,-3.1,29.1,32.5,2.3,112
2011-10-23 10:05:28,26.0,-3.4,29.4,32.5,2.3,112
2011-10-23 10:10:28,26.1,-3.2,29.3,32.5,2.3,111
2011-10-23 10:15:28,26.1,-2.8,28.9,32.5,2.3,112
2011-10-23 10:20:28,25.9,-1.6,27.5,32.5,2.3,111
2011-10-23 10:25:28,26.4,-2.5,28.9,32.5,2.3,111
2011-10-23 10:30:28,26.5,-2.0,28.5,32.5,2.2,112
2011-10-23 10:35:28,26.6,1.4,25.2,32.5,2.3,111
2011-10-23 10:40:28,26.9,3.0,23.9,32.5,2.3,111
2011-10-23 10:45:28,27.2,4.1,23.2,32.5,2.4,112
2011-10-23 10:50:28,27.4,3.6,23.8,32.5,2.3,111
2011-10-23 10:55:28,27.5,4.5,23.0,32.5,2.3,112
2011-10-23 11:00:28,27.3,5.4,21.9,32.5,2.4,111
2011-10-23 11:05:28,27.1,6.0,21.1,32.5,2.4,112
2011-10-23 11:10:28,25.8,6.2,19.6,32.5,2.3,111
2011-10-23 11:15:28,24.2,3.1,21.1,32.5,2.3,112
2011-10-23 11:20:28,26.1,-0.5,26.6,32.5,2.3,111
2011-10-23 11:25:28,26.6,-0.2,26.8,32.5,2.3,112
2011-10-23 11:30:28,26.9,1.6,25.3,32.5,2.3,111
2011-10-23 11:35:28,27.0,1.5,25.5,32.5,2.3,111
2011-10-23 11:40:28,27.3,0.7,26.6,32.6,2.3,112
2011-10-23 11:45:28,27.6,-1.3,28.9,32.5,2.3,112
2011-10-23 11:50:28,27.4,2.6,24.7,32.5,2.3,111
2011-10-23 11:55:28,27.3,5.0,22.3,32.5,2.3,112
2011-10-23 12:00:28,26.7,5.3,21.4,32.5,2.3,112
2011-10-23 12:05:28,27.3,6.1,21.3,32.5,2.3,111
2011-10-23 12:10:28,27.3,5.3,22.0,32.5,2.3,111
2011-10-23 12:15:28,27.1,6.2,20.9,32.5,2.3,111
2011-10-23 12:20:28,25.8,6.3,19.5,32.5,2.4,112
2011-10-23 12:25:28,23.8,6.7,17.2,32.5,2.2,111
2011-10-23 12:30:28,23.1,6.9,16.2,32.5,2.3,112
2011-10-23 12:35:28,22.8,5.7,17.1,32.5,2.3,111
2011-10-23 12:40:28,22.6,4.4,18.2,32.5,2.3,112
2011-10-23 12:45:28,24.4,2.1,22.3,32.5,2.3,111
2011-10-23 12:50:28,26.8,0.1,26.7,32.5,2.3,112
2011-10-23 12:55:28,27.6,0.0,27.5,32.6,2.3,111
2011-10-23 13:00:28,27.9,0.3,27.6,32.6,2.3,111
2011-10-23 13:05:28,29.3,1.4,27.9,32.6,2.3,111
2011-10-23 13:10:28,30.4,0.3,30.1,32.6,2.3,112
2011-10-23 13:15:28,30.7,0.0,30.7,32.6,2.3,111
2011-10-23 13:20:28,30.5,1.7,28.8,32.6,2.3,111
2011-10-23 13:25:28,30.9,2.5,28.4,32.6,2.3,111
2011-10-23 13:30:28,31.2,1.8,29.4,32.6,2.3,112
2011-10-23 13:35:28,31.3,4.7,26.6,32.6,2.3,111
2011-10-23 13:40:28,31.6,5.2,26.4,32.6,2.3,112
2011-10-23 13:45:28,31.7,5.1,26.6,32.6,2.3,111
2011-10-23 13:50:28,31.8,7.1,24.7,32.6,2.3,112
2011-10-23 13:55:28,32.1,5.9,26.2,32.6,2.3,111
2011-10-23 14:00:28,31.6,5.6,26.0,32.6,2.3,112
2011-10-23 14:05:28,30.9,5.8,25.1,32.6,2.3,111
2011-10-23 14:10:28,30.5,6.9,23.6,32.6,2.3,111
2011-10-23 14:15:28,30.3,6.5,23.7,32.6,2.3,112
2011-10-23 14:20:28,30.1,7.1,23.0,32.6,2.3,111
2011-10-23 14:25:28,30.0,6.5,23.4,32.6,2.3,111
2011-10-23 14:30:28,30.0,8.1,21.9,32.6,2.3,112
2011-10-23 14:35:28,30.4,5.0,25.4,32.5,2.3,111
2011-10-23 14:40:28,30.1,6.0,24.1,32.5,2.3,112
2011-10-23 14:45:28,29.8,6.6,23.3,32.5,2.3,111
2011-10-23 14:50:28,29.6,6.4,23.2,32.5,2.3,112
2011-10-23 14:55:28,29.4,6.1,23.3,32.5,2.3,111
2011-10-23 15:00:28,29.4,6.5,23.0,32.6,2.3,112
2011-10-23 15:05:28,30.3,5.1,25.2,32.6,2.3,112
2011-10-23 15:10:28,30.5,2.5,28.0,32.6,2.3,111
2011-10-23 15:15:28,31.5,1.8,29.7,32.6,2.3,111
2011-10-23 15:20:28,31.2,-0.2,31.4,32.6,2.3,111
2011-10-23 15:25:28,30.8,1.6,29.2,32.6,2.3,112
2011-10-23 15:30:28,30.8,1.3,29.5,32.6,2.3,110
2011-10-23 15:35:28,30.6,3.3,27.4,32.6,2.3,112
2011-10-23 15:40:28,30.8,4.4,26.5,32.6,2.3,111
2011-10-23 15:45:28,31.2,3.8,27.4,32.6,2.3,112
2011-10-23 15:50:28,31.2,2.8,28.4,32.6,2.3,111
2011-10-23 15:55:28,30.9,1.0,29.9,32.6,2.3,111
2011-10-23 16:00:28,30.3,1.0,29.3,32.6,2.3,112
2011-10-23 16:05:28,30.3,1.8,28.5,32.6,2.3,111
2011-10-23 16:10:28,30.5,2.1,28.4,32.6,2.3,111
2011-10-23 16:15:28,30.6,0.1,30.5,32.6,2.3,111
2011-10-23 16:20:28,30.4,-1.7,32.1,32.6,2.3,112
2011-10-23 16:25:28,30.0,-2.3,32.3,32.6,2.3,111
2011-10-23 16:30:28,29.7,-2.0,31.8,32.6,2.3,112
2011-10-23 16:35:28,29.4,-3.0,32.4,32.5,2.3,111
2011-10-23 16:40:28,29.1,-3.5,32.6,32.5,2.3,112
2011-10-23 16:45:28,28.7,-3.2,31.9,32.5,2.3,112
2011-10-23 16:50:28,28.4,-3.8,32.2,32.5,2.3,111
2011-10-23 16:55:28,28.1,-4.3,32.4,32.5,2.3,112
2011-10-23 17:00:28,27.7,-4.7,32.4,32.4,2.3,112
2011-10-23 17:05:28,27.3,-5.2,32.5,32.4,2.3,112
2011-10-23 17:10:28,26.9,-5.3,32.2,32.3,2.3,111
2011-10-23 17:15:28,26.6,-5.5,32.1,32.3,2.4,112
2011-10-23 17:20:28,26.4,-5.4,31.8,32.3,2.4,111
2011-10-23 17:25:28,26.3,-5.4,31.6,32.2,2.3,111
2011-10-23 17:30:28,26.1,-5.4,31.5,32.2,2.3,112
2011-10-23 17:35:28,26.0,-5.2,31.2,32.0,2.3,111
2011-10-23 17:40:28,25.4,-4.2,29.6,31.9,2.3,112
2011-10-23 17:45:28,25.8,-2.4,28.2,31.6,2.2,112
2011-10-23 17:50:28,25.8,-2.7,28.4,31.3,2.2,112
2011-10-23 17:55:28,25.8,-2.1,27.9,30.8,2.2,111
2011-10-23 18:00:28,25.3,-2.1,27.4,29.8,2.2,112
2011-10-23 18:05:28,25.8,-0.7,26.5,28.5,2.2,112
2011-10-23 18:10:28,25.7,-2.6,28.3,26.3,2.3,111
2011-10-23 18:15:28,25.6,-3.0,28.6,22.9,2.3,112
2011-10-23 18:20:28,25.6,-5.0,30.6,17.9,2.3,111
2011-10-23 18:25:28,25.5,-5.8,31.3,12.3,2.3,112
2011-10-23 18:30:28,25.4,-5.7,31.1,7.5,2.3,111
2011-10-23 18:35:28,25.4,-5.5,30.9,4.1,2.3,112
2011-10-23 18:40:28,25.4,-5.8,31.2,2.1,2.3,112
2011-10-23 18:45:28,25.3,-5.6,30.9,1.0,2.3,111
2011-10-23 18:50:28,25.3,-5.8,31.1,0.5,2.3,111
2011-10-23 18:55:28,25.3,-5.7,31.0,0.3,2.3,112
2011-10-23 19:00:28,25.3,-5.4,30.7,0.1,2.3,112
2011-10-23 19:05:28,25.2,-5.1,30.3,0.1,2.3,111
2011-10-23 19:10:28,25.3,-4.9,30.2,0.0,2.3,112
2011-10-23 19:15:28,25.2,-4.9,30.2,0.0,2.3,111
2011-10-23 19:20:29,25.1,-4.7,29.8,0.0,2.3,112
2011-10-23 19:25:29,24.7,-4.2,28.9,0.0,2.3,112
2011-10-23 19:30:29,25.2,-4.1,29.3,0.0,2.3,111
2011-10-23 19:35:29,25.2,-3.7,28.9,0.0,2.3,112
2011-10-23 19:40:29,25.2,-3.4,28.5,0.0,2.3,112
2011-10-23 19:45:29,25.2,-3.3,28.5,0.0,2.3,112
2011-10-23 19:50:29,25.2,-3.1,28.2,0.0,2.3,112
2011-10-23 19:55:29,25.3,-2.9,28.2,0.0,2.3,111
2011-10-23 20:00:29,25.3,-2.9,28.1,0.0,2.3,111
2011-10-23 20:05:29,25.3,-2.7,27.9,0.0,2.3,112
2011-10-23 20:10:29,25.3,-2.6,27.9,0.0,2.3,112
2011-10-23 20:15:29,25.3,-2.8,28.0,0.0,2.3,111
2011-10-23 20:20:29,25.3,-1.0,26.3,0.0,2.3,111
2011-10-23 20:25:29,25.4,2.7,22.7,0.1,2.3,112
2011-10-23 20:30:29,25.5,3.3,22.3,0.1,2.3,111
2011-10-23 20:35:29,25.3,5.0,20.3,0.1,2.3,112
2011-10-23 20:40:29,22.7,5.5,17.2,0.1,2.3,112
2011-10-23 20:45:29,21.5,3.6,18.0,0.1,2.2,111
2011-10-23 20:50:29,22.9,0.2,22.7,0.0,2.3,111
2011-10-23 20:55:29,24.9,-1.1,25.9,0.0,2.3,112
2011-10-23 21:00:29,25.4,-0.1,25.5,0.0,2.3,112
2011-10-23 21:05:29,25.6,-0.1,25.7,0.0,2.3,111
2011-10-23 21:10:29,25.7,-1.3,27.0,0.0,2.3,112
2011-10-23 21:15:29,25.8,-2.0,27.7,0.0,2.3,112
2011-10-23 21:20:29,25.8,-1.9,27.7,0.0,2.3,111
2011-10-23 21:25:29,25.8,-2.1,27.8,0.0,2.3,112
2011-10-23 21:30:29,25.7,-2.1,27.7,0.0,2.3,112
2011-10-23 21:35:29,25.6,-2.2,27.8,0.0,2.3,111
2011-10-23 21:40:29,25.6,-2.3,27.9,0.0,2.3,112
2011-10-23 21:45:29,25.5,-2.2,27.7,0.0,2.3,111
2011-10-23 21:50:29,25.5,-2.3,27.9,0.0,2.3,112
2011-10-23 21:55:29,25.5,-2.2,27.7,0.0,2.3,112
2011-10-23 22:00:29,25.4,-2.2,27.6,0.0,2.3,111
2011-10-23 22:05:29,25.4,-2.2,27.6,0.0,2.3,112
2011-10-23 22:10:29,25.4,-2.2,27.6,0.0,2.3,112
2011-10-23 22:15:29,25.4,-2.4,27.8,0.0,2.3,111
2011-10-23 22:20:29,25.4,-2.5,27.9,0.0,2.3,112
2011-10-23 22:25:29,25.4,-2.4,27.8,0.0,2.3,112
2011-10-23 22:30:29,25.4,-2.5,27.9,0.0,2.3,112
2011-10-23 22:35:29,25.5,-2.3,27.8,0.0,2.3,111
2011-10-23 22:40:29,25.4,-2.2,27.6,0.0,2.3,112
2011-10-23 22:45:29,25.3,-2.8,28.1,0.0,2.3,112
2011-10-23 22:50:29,25.4,-2.9,28.3,0.0,2.3,112
2011-10-23 22:55:29,25.3,-1.6,26.9,0.0,2.3,111
2011-10-23 23:00:29,25.3,3.2,22.1,0.0,2.3,112
2011-10-23 23:05:29,23.2,6.6,16.6,0.0,2.3,111
2011-10-23 23:10:29,21.5,6.5,15.0,0.0,2.3,111
2011-10-23 23:15:29,21.1,6.9,14.2,0.0,2.3,112
2011-10-23 23:20:29,20.9,6.6,14.4,0.0,2.4,111
2011-10-23 23:25:29,21.2,5.7,15.4,0.0,2.5,112
2011-10-23 23:30:29,20.8,3.1,17.7,0.0,2.5,111
2011-10-23 23:35:29,20.8,2.9,17.9,0.0,2.4,112
2011-10-23 23:40:29,20.7,5.4,15.3,0.0,2.3,111
2011-10-23 23:45:29,20.7,7.1,13.6,0.0,2.3,112
2011-10-23 23:50:29,20.7,8.9,11.8,0.1,2.3,111
2011-10-23 23:55:29,20.8,9.0,11.9,0.1,2.3,112
